Flag for Canada Weather past 2 weeks in Campbell River, British Columbia, Canada

Now
63 °F

Broken clouds.


Feels Like: 63 °F
Forecast: 55 / 65 °F
Wind: 2 mph from North

Location: Campbell River Airport

Current Time: Sep 17, 2014 at 10:54:12 AM

Latest Report: Sep 17, 2014 at 10:00 AM


Visibility: 15 mi

Pressure: 29.78 "Hg

Humidity: 83%

Dew point: 57 °F

Location of Campbell RiverLocation

Historic Weather in Campbell River — Graph

°F

Campbell River temperature yesterday

Maximum temperature yesterday: 75 °F (at 2:00 PM)
Minimum temperature yesterday: 39 °F (at 6:00 AM)
Average temperature yesterday: 64 °F

Past Weeks' High & Low Weather Summary

 TemperatureHumidityPressure
High84 °F (Sep 6, 4:00 PM)100% (Sep 2, 12:00 PM)30.36 "Hg (Sep 2, 12:00 PM)
Low36 °F (Sep 11, 7:00 AM)23% (Sep 10, 5:00 PM)29.78 "Hg (Sep 17, 6:00 AM)
Average64 °F58%30.01 "Hg
* Reported Sep 2 9:00 AM — Sep 17 9:00 AM, Campbell River, Weather by CustomWeather, © 2014

Note: Actual official high and low records may vary slightly from our data, if they occured in-between our weather recording intervals... More about our weather records

Advertising

Campbell River weather history for previous 24 hours

 ConditionsComfort  
Time TempWeatherWind HumidityBarometerVisibility
9:00 AM
Sep 17
59 °FMore clouds than sun.3 mph88%29.79 "Hg20 mi
8:00 AM55 °FMostly cloudy.No wind94%29.78 "Hg20 mi
7:00 AM55 °FPassing clouds.2 mph94%29.78 "Hg20 mi
6:00 AM54 °FPassing clouds.6 mph100%29.78 "Hg15 mi
9:00 PM
Sep 16
57 °FPartly cloudy.No wind82%29.81 "Hg30 mi
8:00 PM59 °FBroken clouds.No wind72%29.80 "Hg30 mi
7:00 PM66 °FBroken clouds.2 mph56%29.80 "Hg30 mi
6:00 PM70 °FBroken clouds.5 mph43%29.80 "Hg30 mi
5:00 PM73 °FPartly sunny.6 mph38%29.80 "Hg30 mi
4:00 PM72 °FPartly sunny.7 mph41%29.82 "Hg30 mi
3:00 PM75 °FPartly sunny.6 mph36%29.83 "Hg30 mi
2:00 PM75 °FScattered clouds.6 mph36%29.84 "Hg30 mi
1:00 PM73 °FPassing clouds.5 mph38%29.85 "Hg30 mi
12:00 PM72 °FPassing clouds.6 mph41%29.85 "Hg30 mi
11:00 AM70 °FScattered clouds.2 mph43%29.86 "Hg30 mi
10:00 AM66 °FScattered clouds.2 mph49%29.87 "Hg30 mi
Weather by CustomWeather, © 2014

See weather overviewHow to use our weather pages